Time,TemperatureF,DewpointF,PressureIn,WindDirection,WindDirectionDegrees,WindSpeedMPH,WindSpeedGustMPH,Humidity,HourlyPrecipIn,Conditions,Clouds,dailyrainin,SoftwareType,DateUTC
2013-02-13 00:04:00,47.1,44.3,30.03,SSW,202,2.3,2.3,90,0.00,RA,,0.00,WeatherDisplay:10.37,2013-02-13 08:04:00,
2013-02-13 00:10:00,47.1,44.0,30.04,SW,225,0.0,0.0,89,0.00,CLR,,0.00,WeatherDisplay:10.37,2013-02-13 08:10:00,
2013-02-13 00:15:00,47.1,44.0,30.04,SW,225,0.0,0.0,89,0.00,CLR,,0.00,WeatherDisplay:10.37,2013-02-13 08:15:00,
2013-02-13 00:21:00,47.1,44.0,30.05,WSW,248,0.0,0.0,89,0.00,CLR,,0.00,WeatherDisplay:10.37,2013-02-13 08:21:00,
2013-02-13 00:26:00,47.1,44.0,30.06,East,90,2.3,2.3,89,0.00,CLR,,0.00,WeatherDisplay:10.37,2013-02-13 08:26:00,
2013-02-13 00:31:00,47.1,44.0,30.06,WSW,248,2.3,2.3,89,0.00,CLR,,0.00,WeatherDisplay:10.37,2013-02-13 08:31:00,
2013-02-13 00:36:00,47.1,44.0,30.07,ESE,112,1.6,1.6,89,0.00,CLR,,0.00,WeatherDisplay:10.37,2013-02-13 08:36:00,
2013-02-13 00:41:00,47.1,44.0,30.07,WSW,248,0.0,0.0,89,0.00,CLR,,0.00,WeatherDisplay:10.37,2013-02-13 08:41:00,
2013-02-13 00:46:00,47.1,44.0,30.06,ESE,112,0.0,0.0,89,0.00,CLR,,0.00,WeatherDisplay:10.37,2013-02-13 08:46:00,
2013-02-13 00:51:00,47.1,44.0,30.07,SE,135,0.0,0.0,89,0.00,CLR,,0.00,WeatherDisplay:10.37,2013-02-13 08:51:00,
2013-02-13 00:56:00,47.1,44.0,30.07,SSW,202,0.0,0.0,89,0.00,CLR,,0.00,WeatherDisplay:10.37,2013-02-13 08:56:00,
2013-02-13 01:01:00,47.1,44.0,30.07,SE,135,0.0,0.0,89,0.00,CLR,,0.00,WeatherDisplay:10.37,2013-02-13 09:01:00,
2013-02-13 01:06:00,47.1,44.0,30.08,SSW,202,0.0,0.0,89,0.00,CLR,,0.00,WeatherDisplay:10.37,2013-02-13 09:06:00,
2013-02-13 01:11:00,47.1,44.0,30.07,SSE,158,0.0,0.0,89,0.00,CLR,,0.00,WeatherDisplay:10.37,2013-02-13 09:11:00,
2013-02-13 01:16:00,46.9,44.2,30.08,SSE,158,0.0,0.0,90,0.00,CLR,,0.00,WeatherDisplay:10.37,2013-02-13 09:16:00,
2013-02-13 01:21:00,46.9,44.2,30.08,West,270,0.0,0.0,90,0.00,CLR,,0.00,WeatherDisplay:10.37,2013-02-13 09:21:00,
2013-02-13 01:26:00,46.9,44.2,30.08,SSE,158,0.0,0.0,90,0.00,CLR,,0.00,WeatherDisplay:10.37,2013-02-13 09:26:00,
2013-02-13 01:31:00,46.9,44.2,30.07,SSE,158,0.0,0.0,90,0.00,CLR,,0.00,WeatherDisplay:10.37,2013-02-13 09:31:00,
2013-02-13 01:36:00,46.9,44.2,30.07,SE,135,0.0,0.0,90,0.00,CLR,,0.00,WeatherDisplay:10.37,2013-02-13 09:36:00,
2013-02-13 01:41:00,46.9,44.2,30.07,SSE,158,0.0,0.0,90,0.00,CLR,,0.00,WeatherDisplay:10.37,2013-02-13 09:41:00,
2013-02-13 01:46:00,46.9,44.2,30.07,SSE,158,4.7,4.7,90,0.00,CLR,,0.00,WeatherDisplay:10.37,2013-02-13 09:46:00,
2013-02-13 01:51:00,46.9,44.2,30.07,South,180,0.0,0.0,90,0.00,CLR,,0.00,WeatherDisplay:10.37,2013-02-13 09:51:00,
2013-02-13 01:56:00,46.9,44.2,30.07,SSE,158,0.0,0.0,90,0.00,CLR,,0.00,WeatherDisplay:10.37,2013-02-13 09:56:00,
2013-02-13 02:01:00,46.8,44.0,30.07,WNW,292,2.5,2.5,90,0.00,CLR,,0.00,WeatherDisplay:10.37,2013-02-13 10:01:00,
2013-02-13 02:06:00,46.6,43.8,30.07,SW,225,0.0,0.0,90,0.00,CLR,,0.00,WeatherDisplay:10.37,2013-02-13 10:06:00,
2013-02-13 02:11:00,46.6,44.1,30.08,SSE,158,0.0,0.0,91,0.00,CLR,,0.00,WeatherDisplay:10.37,2013-02-13 10:11:00,
2013-02-13 02:16:00,46.2,43.7,30.08,SSE,158,0.0,0.0,91,0.00,CLR,,0.00,WeatherDisplay:10.37,2013-02-13 10:16:00,
2013-02-13 02:21:00,46.2,43.7,30.08,ESE,112,0.0,0.0,91,0.00,CLR,,0.00,WeatherDisplay:10.37,2013-02-13 10:21:00,
2013-02-13 02:26:00,46.2,43.7,30.08,ESE,112,0.0,0.0,91,0.00,CLR,,0.00,WeatherDisplay:10.37,2013-02-13 10:26:00,
2013-02-13 02:31:00,46.0,43.6,30.08,West,270,0.0,0.0,91,0.00,CLR,,0.00,WeatherDisplay:10.37,2013-02-13 10:31:00,
2013-02-13 02:36:00,46.0,43.6,30.08,SSW,202,0.0,0.0,91,0.00,CLR,,0.00,WeatherDisplay:10.37,2013-02-13 10:36:00,
2013-02-13 02:41:00,46.0,43.8,30.09,SSW,202,0.0,0.0,92,0.00,CLR,,0.00,WeatherDisplay:10.37,2013-02-13 10:41:00,
2013-02-13 02:46:00,45.9,43.7,30.08,SSW,202,0.0,0.0,92,0.02,RA,,0.02,WeatherDisplay:10.37,2013-02-13 10:46:00,
2013-02-13 02:51:00,45.7,43.5,30.08,SSW,202,0.0,0.0,92,0.02,RA,,0.02,WeatherDisplay:10.37,2013-02-13 10:51:00,
2013-02-13 02:56:00,45.7,43.5,30.08,SSW,202,0.0,0.0,92,0.06,RA,,0.06,WeatherDisplay:10.37,2013-02-13 10:56:00,
2013-02-13 03:01:00,45.7,43.8,30.08,West,270,0.0,0.0,93,0.06,RA,,0.06,WeatherDisplay:10.37,2013-02-13 11:01:00,
2013-02-13 03:06:00,45.7,43.8,30.08,West,270,0.0,0.0,93,0.06,CLR,,0.06,WeatherDisplay:10.37,2013-02-13 11:06:00,
2013-02-13 03:11:00,45.5,43.6,30.08,WNW,292,0.0,0.0,93,0.06,CLR,,0.06,WeatherDisplay:10.37,2013-02-13 11:11:00,
2013-02-13 03:16:00,45.5,43.6,30.08,NNE,22,0.0,0.0,93,0.06,CLR,,0.06,WeatherDisplay:10.37,2013-02-13 11:16:00,
2013-02-13 03:21:00,45.5,43.6,30.08,NNE,22,0.0,0.0,93,0.06,CLR,,0.06,WeatherDisplay:10.37,2013-02-13 11:21:00,
2013-02-13 03:26:00,45.3,43.4,30.08,West,270,1.6,1.6,93,0.06,CLR,,0.06,WeatherDisplay:10.37,2013-02-13 11:26:00,
2013-02-13 03:31:00,45.3,43.4,30.08,SSW,202,0.0,0.0,93,0.06,CLR,,0.06,WeatherDisplay:10.37,2013-02-13 11:31:00,
2013-02-13 03:36:00,45.3,43.4,30.08,ESE,112,0.0,0.0,93,0.06,CLR,,0.06,WeatherDisplay:10.37,2013-02-13 11:36:00,
2013-02-13 03:41:00,45.1,43.2,30.08,ENE,68,0.0,0.0,93,0.06,CLR,,0.06,WeatherDisplay:10.37,2013-02-13 11:41:00,
2013-02-13 03:46:00,45.1,43.2,30.08,SSW,202,0.0,0.0,93,0.04,CLR,,0.06,WeatherDisplay:10.37,2013-02-13 11:46:00,
2013-02-13 03:51:00,45.0,43.1,30.09,SSW,202,0.0,0.0,93,0.04,CLR,,0.06,WeatherDisplay:10.37,2013-02-13 11:51:00,
2013-02-13 03:56:00,45.0,43.3,30.09,SSE,158,0.0,0.0,94,0.00,CLR,,0.06,WeatherDisplay:10.37,2013-02-13 11:56:00,
2013-02-13 04:01:00,45.0,43.3,30.09,SSE,158,0.0,0.0,94,0.00,CLR,,0.06,WeatherDisplay:10.37,2013-02-13 12:01:00,
2013-02-13 04:06:00,45.0,43.3,30.09,SSE,158,0.0,0.0,94,0.00,CLR,,0.06,WeatherDisplay:10.37,2013-02-13 12:06:00,
2013-02-13 04:11:00,45.0,43.3,30.09,SE,135,0.0,0.0,94,0.00,CLR,,0.06,WeatherDisplay:10.37,2013-02-13 12:11:00,
2013-02-13 04:16:00,45.0,43.3,30.09,SE,135,0.0,0.0,94,0.00,CLR,,0.06,WeatherDisplay:10.37,2013-02-13 12:16:00,
2013-02-13 04:21:00,45.0,43.3,30.09,SE,135,0.0,0.0,94,0.00,CLR,,0.06,WeatherDisplay:10.37,2013-02-13 12:21:00,
2013-02-13 04:26:00,44.8,43.2,30.10,West,270,2.3,2.3,94,0.00,CLR,,0.06,WeatherDisplay:10.37,2013-02-13 12:26:00,
2013-02-13 04:31:00,44.6,43.0,30.10,SSW,202,0.0,0.0,94,0.00,CLR,,0.06,WeatherDisplay:10.37,2013-02-13 12:31:00,
2013-02-13 04:36:00,44.4,42.8,30.10,ENE,68,0.0,0.0,94,0.00,CLR,,0.06,WeatherDisplay:10.37,2013-02-13 12:36:00,
2013-02-13 04:41:00,44.4,42.8,30.10,NW,315,0.0,0.0,94,0.00,CLR,,0.06,WeatherDisplay:10.37,2013-02-13 12:41:00,
2013-02-13 04:46:00,44.2,42.6,30.10,SSW,202,0.0,0.0,94,0.00,CLR,,0.06,WeatherDisplay:10.37,2013-02-13 12:46:00,
2013-02-13 04:51:00,43.9,42.3,30.10,SSW,202,0.0,0.0,94,0.00,CLR,,0.06,WeatherDisplay:10.37,2013-02-13 12:51:00,
2013-02-13 04:56:00,43.7,42.1,30.10,SSW,202,0.0,0.0,94,0.00,CLR,,0.06,WeatherDisplay:10.37,2013-02-13 12:56:00,
2013-02-13 05:01:00,43.5,41.9,30.10,South,180,0.0,0.0,94,0.00,CLR,,0.06,WeatherDisplay:10.37,2013-02-13 13:01:00,
2013-02-13 05:06:00,43.2,41.3,30.10,South,180,0.0,0.0,93,0.00,CLR,,0.06,WeatherDisplay:10.37,2013-02-13 13:06:00,
2013-02-13 05:11:00,43.2,41.3,30.11,ESE,112,0.0,0.0,93,0.00,CLR,,0.06,WeatherDisplay:10.37,2013-02-13 13:11:00,
2013-02-13 05:16:00,43.0,41.1,30.11,ESE,112,0.0,0.0,93,0.00,CLR,,0.06,WeatherDisplay:10.37,2013-02-13 13:16:00,
2013-02-13 05:21:00,43.0,41.1,30.10,East,90,0.0,0.0,93,0.00,CLR,,0.06,WeatherDisplay:10.37,2013-02-13 13:21:00,
2013-02-13 05:26:00,42.6,40.7,30.10,East,90,0.0,0.0,93,0.00,CLR,,0.06,WeatherDisplay:10.37,2013-02-13 13:26:00,
2013-02-13 05:31:00,42.6,40.7,30.10,SSE,158,0.0,0.0,93,0.00,CLR,,0.06,WeatherDisplay:10.37,2013-02-13 13:31:00,
2013-02-13 05:36:00,42.6,40.7,30.10,SSE,158,0.0,0.0,93,0.00,CLR,,0.06,WeatherDisplay:10.37,2013-02-13 13:36:00,
2013-02-13 05:41:00,42.6,40.7,30.10,SSE,158,0.0,0.0,93,0.00,CLR,,0.06,WeatherDisplay:10.37,2013-02-13 13:41:00,
2013-02-13 05:46:00,42.4,40.6,30.10,ESE,112,0.0,0.0,93,0.00,CLR,,0.06,WeatherDisplay:10.37,2013-02-13 13:46:00,
2013-02-13 05:51:00,42.4,40.6,30.10,SSE,158,0.0,0.0,93,0.00,CLR,,0.06,WeatherDisplay:10.37,2013-02-13 13:51:00,
2013-02-13 05:56:00,42.4,40.6,30.11,SSE,158,0.0,0.0,93,0.00,CLR,,0.06,WeatherDisplay:10.37,2013-02-13 13:56:00,
2013-02-13 06:01:00,42.1,40.2,30.11,SE,135,0.0,0.0,93,0.00,CLR,,0.06,WeatherDisplay:10.37,2013-02-13 14:01:00,
2013-02-13 06:06:00,42.1,40.2,30.11,SE,135,0.0,0.0,93,0.00,CLR,,0.06,WeatherDisplay:10.37,2013-02-13 14:06:00,
2013-02-13 06:11:00,42.1,40.2,30.11,SSE,158,0.0,0.0,93,0.00,CLR,,0.06,WeatherDisplay:10.37,2013-02-13 14:11:00,
2013-02-13 06:16:00,41.9,40.0,30.10,SSE,158,0.0,0.0,93,0.00,CLR,,0.06,WeatherDisplay:10.37,2013-02-13 14:16:00,
2013-02-13 06:21:00,41.9,40.0,30.11,SSE,158,0.0,0.0,93,0.00,CLR,,0.06,WeatherDisplay:10.37,2013-02-13 14:21:00,
2013-02-13 06:26:00,41.9,40.0,30.11,SSE,158,5.8,5.8,93,0.00,CLR,,0.06,WeatherDisplay:10.37,2013-02-13 14:26:00,
2013-02-13 06:31:00,41.9,40.0,30.11,SE,135,0.0,0.0,93,0.00,CLR,,0.06,WeatherDisplay:10.37,2013-02-13 14:31:00,
2013-02-13 06:36:00,42.1,40.2,30.11,SE,135,0.0,0.0,93,0.00,CLR,,0.06,WeatherDisplay:10.37,2013-02-13 14:36:00,
2013-02-13 06:41:00,42.1,40.2,30.11,SSE,158,0.0,0.0,93,0.00,CLR,,0.06,WeatherDisplay:10.37,2013-02-13 14:41:00,
2013-02-13 06:46:00,42.1,40.2,30.11,SSE,158,0.0,0.0,93,0.00,CLR,,0.06,WeatherDisplay:10.37,2013-02-13 14:46:00,
2013-02-13 06:51:00,42.1,40.2,30.11,SSE,158,0.0,0.0,93,0.00,CLR,,0.06,WeatherDisplay:10.37,2013-02-13 14:51:00,
2013-02-13 06:56:00,42.1,40.2,30.11,ESE,112,0.0,0.0,93,0.00,CLR,,0.06,WeatherDisplay:10.37,2013-02-13 14:56:00,
2013-02-13 07:01:00,42.1,40.2,30.11,ESE,112,0.0,0.0,93,0.00,CLR,,0.06,WeatherDisplay:10.37,2013-02-13 15:01:00,
2013-02-13 07:06:00,42.1,40.2,30.11,East,90,0.0,0.0,93,0.00,CLR,,0.06,WeatherDisplay:10.37,2013-02-13 15:06:00,
2013-02-13 07:11:00,42.1,40.2,30.12,SE,135,0.0,0.0,93,0.00,CLR,,0.06,WeatherDisplay:10.37,2013-02-13 15:11:00,
2013-02-13 07:16:00,42.3,40.4,30.13,East,90,0.0,0.0,93,0.00,CLR,,0.06,WeatherDisplay:10.37,2013-02-13 15:16:00,
2013-02-13 07:21:00,42.4,40.6,30.13,East,90,0.0,0.0,93,0.00,CLR,,0.06,WeatherDisplay:10.37,2013-02-13 15:21:00,
2013-02-13 07:26:00,42.4,40.6,30.13,East,90,0.0,0.0,93,0.00,CLR,,0.06,WeatherDisplay:10.37,2013-02-13 15:26:00,
2013-02-13 07:31:00,42.4,40.6,30.13,ESE,112,0.0,0.0,93,0.00,CLR,,0.06,WeatherDisplay:10.37,2013-02-13 15:31:00,
2013-02-13 07:36:00,42.6,40.7,30.13,ESE,112,0.0,0.0,93,0.00,CLR,,0.06,WeatherDisplay:10.37,2013-02-13 15:36:00,
2013-02-13 07:41:00,42.6,40.7,30.13,ESE,112,0.0,0.0,93,0.00,CLR,,0.06,WeatherDisplay:10.37,2013-02-13 15:41:00,
2013-02-13 07:46:00,42.6,40.7,30.13,East,90,0.0,0.0,93,0.00,CLR,,0.06,WeatherDisplay:10.37,2013-02-13 15:46:00,
2013-02-13 07:51:00,42.6,40.7,30.14,SSW,202,1.2,1.2,93,0.00,CLR,,0.06,WeatherDisplay:10.37,2013-02-13 15:51:00,
2013-02-13 07:56:00,42.8,40.6,30.14,SSW,202,0.0,0.0,92,0.00,CLR,,0.06,WeatherDisplay:10.37,2013-02-13 15:56:00,
2013-02-13 08:01:00,43.0,40.8,30.14,SSW,202,0.0,0.0,92,0.00,CLR,,0.06,WeatherDisplay:10.37,2013-02-13 16:01:00,
2013-02-13 08:06:00,43.0,40.8,30.14,SSW,202,0.0,0.0,92,0.00,CLR,,0.06,WeatherDisplay:10.37,2013-02-13 16:06:00,
2013-02-13 08:11:00,43.0,40.8,30.14,SSW,202,0.0,0.0,92,0.00,CLR,,0.06,WeatherDisplay:10.37,2013-02-13 16:11:00,
2013-02-13 08:16:00,43.0,40.8,30.14,SW,225,3.1,3.1,92,0.00,CLR,,0.06,WeatherDisplay:10.37,2013-02-13 16:16:00,
2013-02-13 08:21:00,43.0,40.8,30.14,SSE,158,3.5,3.5,92,0.00,CLR,,0.06,WeatherDisplay:10.37,2013-02-13 16:21:00,
2013-02-13 08:26:00,43.0,40.8,30.14,SSE,158,0.0,0.0,92,0.00,CLR,,0.06,WeatherDisplay:10.37,2013-02-13 16:26:00,
2013-02-13 08:31:00,43.2,41.0,30.15,SSE,158,0.0,0.0,92,0.00,CLR,,0.06,WeatherDisplay:10.37,2013-02-13 16:31:00,
2013-02-13 08:36:00,43.3,41.2,30.15,SSE,158,0.0,0.0,92,0.00,CLR,,0.06,WeatherDisplay:10.37,2013-02-13 16:36:00,
2013-02-13 08:41:00,43.3,40.9,30.15,South,180,2.5,2.5,91,0.00,CLR,,0.06,WeatherDisplay:10.37,2013-02-13 16:41:00,
2013-02-13 08:46:00,43.3,40.9,30.15,SE,135,0.0,0.0,91,0.00,CLR,,0.06,WeatherDisplay:10.37,2013-02-13 16:46:00,
2013-02-13 08:51:00,43.3,41.2,30.15,SE,135,0.0,0.0,92,0.00,CLR,,0.06,WeatherDisplay:10.37,2013-02-13 16:51:00,
2013-02-13 08:56:00,43.3,41.2,30.15,SW,225,0.0,0.0,92,0.00,CLR,,0.06,WeatherDisplay:10.37,2013-02-13 16:56:00,
2013-02-13 09:01:00,43.5,41.1,30.16,SSE,158,0.0,0.0,91,0.00,CLR,,0.06,WeatherDisplay:10.37,2013-02-13 17:01:00,
2013-02-13 09:06:00,43.7,41.2,30.16,SE,135,3.5,3.5,91,0.00,CLR,,0.06,WeatherDisplay:10.37,2013-02-13 17:06:00,
2013-02-13 09:11:00,43.9,41.4,30.16,SSW,202,0.0,0.0,91,0.00,CLR,,0.06,WeatherDisplay:10.37,2013-02-13 17:11:00,
2013-02-13 09:16:00,44.1,41.6,30.16,SSE,158,0.0,0.0,91,0.00,CLR,,0.06,WeatherDisplay:10.37,2013-02-13 17:16:00,
2013-02-13 09:21:00,44.1,41.3,30.16,SSE,158,0.0,0.0,90,0.00,CLR,,0.06,WeatherDisplay:10.37,2013-02-13 17:21:00,
2013-02-13 09:26:00,44.1,41.3,30.16,SSE,158,0.0,0.0,90,0.00,CLR,,0.06,WeatherDisplay:10.37,2013-02-13 17:26:00,
2013-02-13 09:31:00,44.2,41.5,30.16,South,180,6.9,6.9,90,0.00,CLR,,0.06,WeatherDisplay:10.37,2013-02-13 17:31:00,
2013-02-13 09:36:00,44.2,41.5,30.16,East,90,0.0,0.0,90,0.00,CLR,,0.06,WeatherDisplay:10.37,2013-02-13 17:36:00,
2013-02-13 09:42:00,44.4,41.4,30.16,South,180,0.0,0.0,89,0.00,CLR,,0.06,WeatherDisplay:10.37,2013-02-13 17:42:00,
2013-02-13 09:47:00,44.4,41.4,30.17,East,90,0.0,0.0,89,0.00,CLR,,0.06,WeatherDisplay:10.37,2013-02-13 17:47:00,
2013-02-13 09:52:00,44.4,41.4,30.17,ESE,112,0.0,0.0,89,0.00,CLR,,0.06,WeatherDisplay:10.37,2013-02-13 17:52:00,
2013-02-13 09:57:00,44.6,41.6,30.17,WNW,292,0.0,0.0,89,0.00,CLR,,0.06,WeatherDisplay:10.37,2013-02-13 17:57:00,
2013-02-13 10:02:00,44.8,41.7,30.17,South,180,0.0,0.0,89,0.00,CLR,,0.06,WeatherDisplay:10.37,2013-02-13 18:02:00,
2013-02-13 10:07:00,45.0,41.6,30.17,SSW,202,5.4,5.4,88,0.00,CLR,,0.06,WeatherDisplay:10.37,2013-02-13 18:07:00,
2013-02-13 10:12:00,44.8,41.4,30.17,SSW,202,0.0,0.0,88,0.00,CLR,,0.06,WeatherDisplay:10.37,2013-02-13 18:12:00,
2013-02-13 10:17:00,44.8,41.4,30.17,SSW,202,1.3,1.3,88,0.00,CLR,,0.06,WeatherDisplay:10.37,2013-02-13 18:17:00,
2013-02-13 10:22:00,44.8,41.4,30.17,South,180,0.0,0.0,88,0.00,CLR,,0.06,WeatherDisplay:10.37,2013-02-13 18:22:00,
2013-02-13 10:27:00,44.8,41.4,30.17,South,180,0.0,0.0,88,0.00,CLR,,0.06,WeatherDisplay:10.37,2013-02-13 18:27:00,
2013-02-13 10:32:00,45.0,41.6,30.18,South,180,0.0,0.0,88,0.00,CLR,,0.06,WeatherDisplay:10.37,2013-02-13 18:32:00,
2013-02-13 10:37:00,45.0,41.6,30.17,South,180,0.0,0.0,88,0.00,CLR,,0.06,WeatherDisplay:10.37,2013-02-13 18:37:00,
2013-02-13 10:42:00,45.1,41.8,30.17,SW,225,0.0,0.0,88,0.00,CLR,,0.06,WeatherDisplay:10.37,2013-02-13 18:42:00,
2013-02-13 10:47:00,45.1,41.5,30.17,ESE,112,0.0,0.0,87,0.00,CLR,,0.06,WeatherDisplay:10.37,2013-02-13 18:47:00,
2013-02-13 10:52:00,45.3,41.7,30.17,SE,135,0.0,0.0,87,0.00,CLR,,0.06,WeatherDisplay:10.37,2013-02-13 18:52:00,
2013-02-13 10:57:00,45.3,41.7,30.17,ENE,68,0.0,0.0,87,0.00,CLR,,0.06,WeatherDisplay:10.37,2013-02-13 18:57:00,
2013-02-13 11:02:00,45.1,41.5,30.17,SE,135,0.0,0.0,87,0.00,CLR,,0.06,WeatherDisplay:10.37,2013-02-13 19:02:00,
2013-02-13 11:07:00,45.1,41.5,30.17,SSW,202,2.3,2.3,87,0.00,CLR,,0.06,WeatherDisplay:10.37,2013-02-13 19:07:00,
2013-02-13 11:12:00,45.1,41.5,30.17,SW,225,1.2,1.2,87,0.00,CLR,,0.06,WeatherDisplay:10.37,2013-02-13 19:12:00,
2013-02-13 11:17:00,45.1,41.5,30.17,SSE,158,0.0,0.0,87,0.00,CLR,,0.06,WeatherDisplay:10.37,2013-02-13 19:17:00,
2013-02-13 11:22:00,45.0,41.3,30.17,SSE,158,0.0,0.0,87,0.00,CLR,,0.06,WeatherDisplay:10.37,2013-02-13 19:22:00,
2013-02-13 11:27:00,45.1,41.5,30.17,SSE,158,0.0,0.0,87,0.00,CLR,,0.06,WeatherDisplay:10.37,2013-02-13 19:27:00,
2013-02-13 11:32:00,45.1,41.5,30.17,SSE,158,0.0,0.0,87,0.00,CLR,,0.06,WeatherDisplay:10.37,2013-02-13 19:32:00,
2013-02-13 11:37:00,45.3,41.7,30.17,South,180,0.0,0.0,87,0.00,CLR,,0.06,WeatherDisplay:10.37,2013-02-13 19:37:00,
2013-02-13 11:42:00,45.3,41.7,30.16,South,180,0.0,0.0,87,0.00,CLR,,0.06,WeatherDisplay:10.37,2013-02-13 19:42:00,
2013-02-13 11:47:00,45.5,41.9,30.17,SSE,158,0.0,0.0,87,0.00,CLR,,0.06,WeatherDisplay:10.37,2013-02-13 19:47:00,
2013-02-13 11:52:00,45.7,41.7,30.17,SSW,202,0.0,0.0,86,0.00,CLR,,0.06,WeatherDisplay:10.37,2013-02-13 19:52:00,
2013-02-13 11:57:00,45.7,41.7,30.18,SSW,202,0.0,0.0,86,0.00,CLR,,0.06,WeatherDisplay:10.37,2013-02-13 19:57:00,
2013-02-13 12:02:00,46.0,42.1,30.17,WSW,248,0.0,0.0,86,0.00,CLR,,0.06,WeatherDisplay:10.37,2013-02-13 20:02:00,
2013-02-13 12:07:00,46.0,42.1,30.17,SSE,158,0.0,0.0,86,0.00,CLR,,0.06,WeatherDisplay:10.37,2013-02-13 20:07:00,
2013-02-13 12:12:00,46.2,42.3,30.17,SSE,158,0.0,0.0,86,0.00,CLR,,0.06,WeatherDisplay:10.37,2013-02-13 20:12:00,
2013-02-13 12:17:00,46.6,42.3,30.16,SSE,158,0.0,0.0,85,0.00,CLR,,0.06,WeatherDisplay:10.37,2013-02-13 20:17:00,
2013-02-13 12:22:00,46.8,42.5,30.16,West,270,0.0,0.0,85,0.00,CLR,,0.06,WeatherDisplay:10.37,2013-02-13 20:22:00,
2013-02-13 12:27:00,46.9,42.7,30.16,West,270,0.0,0.0,85,0.00,CLR,,0.06,WeatherDisplay:10.37,2013-02-13 20:27:00,
2013-02-13 12:32:00,46.9,42.7,30.16,SW,225,0.0,0.0,85,0.00,CLR,,0.06,WeatherDisplay:10.37,2013-02-13 20:32:00,
2013-02-13 12:37:00,46.9,42.4,30.16,ESE,112,0.0,0.0,84,0.00,CLR,,0.06,WeatherDisplay:10.37,2013-02-13 20:37:00,
2013-02-13 12:42:00,46.9,42.4,30.16,ESE,112,0.0,0.0,84,0.00,CLR,,0.06,WeatherDisplay:10.37,2013-02-13 20:42:00,
2013-02-13 12:47:00,47.1,42.5,30.17,NW,315,0.0,0.0,84,0.00,CLR,,0.06,WeatherDisplay:10.37,2013-02-13 20:47:00,
2013-02-13 12:52:00,47.3,42.4,30.16,West,270,0.0,0.0,83,0.00,CLR,,0.06,WeatherDisplay:10.37,2013-02-13 20:52:00,
2013-02-13 12:57:00,47.5,42.6,30.16,West,270,0.0,0.0,83,0.00,CLR,,0.06,WeatherDisplay:10.37,2013-02-13 20:57:00,
2013-02-13 13:02:00,47.5,42.6,30.16,SW,225,0.0,0.0,83,0.00,CLR,,0.06,WeatherDisplay:10.37,2013-02-13 21:02:00,
2013-02-13 13:07:00,47.7,42.4,30.16,SW,225,3.6,3.6,82,0.00,CLR,,0.06,WeatherDisplay:10.37,2013-02-13 21:07:00,
2013-02-13 13:12:00,47.5,42.3,30.16,WNW,292,0.0,0.0,82,0.00,CLR,,0.06,WeatherDisplay:10.37,2013-02-13 21:12:00,
2013-02-13 13:17:00,47.5,42.3,30.16,SW,225,0.0,0.0,82,0.00,CLR,,0.06,WeatherDisplay:10.37,2013-02-13 21:17:00,
2013-02-13 13:22:00,47.3,42.1,30.16,SSW,202,0.0,0.0,82,0.00,CLR,,0.06,WeatherDisplay:10.37,2013-02-13 21:22:00,
2013-02-13 13:27:00,47.3,41.8,30.16,East,90,0.0,0.0,81,0.00,CLR,,0.06,WeatherDisplay:10.37,2013-02-13 21:27:00,
2013-02-13 13:32:00,47.3,41.8,30.16,SSE,158,0.0,0.0,81,0.00,CLR,,0.06,WeatherDisplay:10.37,2013-02-13 21:32:00,
2013-02-13 13:37:00,47.1,41.6,30.16,NE,45,0.0,0.0,81,0.00,CLR,,0.06,WeatherDisplay:10.37,2013-02-13 21:37:00,
2013-02-13 13:42:00,47.1,41.9,30.16,ENE,68,0.0,0.0,82,0.00,CLR,,0.06,WeatherDisplay:10.37,2013-02-13 21:42:00,
2013-02-13 13:47:00,47.3,41.8,30.16,South,180,0.0,0.0,81,0.00,CLR,,0.06,WeatherDisplay:10.37,2013-02-13 21:47:00,
2013-02-13 13:52:00,47.5,42.3,30.16,SW,225,1.2,1.2,82,0.00,CLR,,0.06,WeatherDisplay:10.37,2013-02-13 21:52:00,
2013-02-13 13:57:00,47.5,41.9,30.16,West,270,2.3,2.3,81,0.00,CLR,,0.06,WeatherDisplay:10.37,2013-02-13 21:57:00,
2013-02-13 14:02:00,47.7,42.1,30.16,SW,225,0.0,0.0,81,0.00,CLR,,0.06,WeatherDisplay:10.37,2013-02-13 22:02:00,
2013-02-13 14:07:00,47.7,42.1,30.16,West,270,0.0,0.0,81,0.00,CLR,,0.06,WeatherDisplay:10.37,2013-02-13 22:07:00,
2013-02-13 14:12:00,47.7,42.1,30.17,SSE,158,0.0,0.0,81,0.00,CLR,,0.06,WeatherDisplay:10.37,2013-02-13 22:12:00,
2013-02-13 14:17:00,47.7,41.8,30.16,ESE,112,0.0,0.0,80,0.00,CLR,,0.06,WeatherDisplay:10.37,2013-02-13 22:17:00,
2013-02-13 14:22:00,47.7,42.1,30.16,WSW,248,6.9,6.9,81,0.00,CLR,,0.06,WeatherDisplay:10.37,2013-02-13 22:22:00,
2013-02-13 14:27:00,47.5,41.9,30.16,WSW,248,0.0,0.0,81,0.00,CLR,,0.06,WeatherDisplay:10.37,2013-02-13 22:27:00,
2013-02-13 14:32:00,47.5,41.9,30.16,WSW,248,0.0,0.0,81,0.00,CLR,,0.06,WeatherDisplay:10.37,2013-02-13 22:32:00,
2013-02-13 14:37:00,47.5,42.3,30.16,SSW,202,0.0,0.0,82,0.00,CLR,,0.06,WeatherDisplay:10.37,2013-02-13 22:37:00,
2013-02-13 14:42:00,47.5,42.3,30.16,SSW,202,0.0,0.0,82,0.00,CLR,,0.06,WeatherDisplay:10.37,2013-02-13 22:42:00,
2013-02-13 14:47:00,47.3,42.1,30.16,SSW,202,0.0,0.0,82,0.00,CLR,,0.06,WeatherDisplay:10.37,2013-02-13 22:47:00,
2013-02-13 14:52:00,47.5,42.3,30.16,South,180,3.5,3.5,82,0.00,CLR,,0.06,WeatherDisplay:10.37,2013-02-13 22:52:00,
2013-02-13 14:57:00,47.5,42.3,30.16,SSE,158,0.0,0.0,82,0.00,CLR,,0.06,WeatherDisplay:10.37,2013-02-13 22:57:00,
2013-02-13 15:02:00,47.5,42.3,30.17,NW,315,0.0,0.0,82,0.00,CLR,,0.06,WeatherDisplay:10.37,2013-02-13 23:02:00,
2013-02-13 15:07:00,47.7,42.4,30.17,SSW,202,3.5,3.5,82,0.00,CLR,,0.06,WeatherDisplay:10.37,2013-02-13 23:07:00,
2013-02-13 15:12:00,47.7,42.4,30.17,SSW,202,0.0,0.0,82,0.00,CLR,,0.06,WeatherDisplay:10.37,2013-02-13 23:12:00,
2013-02-13 15:17:00,47.7,42.4,30.17,South,180,0.0,0.0,82,0.00,CLR,,0.06,WeatherDisplay:10.37,2013-02-13 23:17:00,
2013-02-13 15:22:00,47.5,41.9,30.17,South,180,0.0,0.0,81,0.00,CLR,,0.06,WeatherDisplay:10.37,2013-02-13 23:22:00,
2013-02-13 15:27:00,47.7,42.4,30.17,South,180,0.0,0.0,82,0.00,CLR,,0.06,WeatherDisplay:10.37,2013-02-13 23:27:00,
2013-02-13 15:32:00,47.7,42.4,30.16,West,270,0.0,0.0,82,0.00,CLR,,0.06,WeatherDisplay:10.37,2013-02-13 23:32:00,
2013-02-13 15:37:00,47.7,42.4,30.17,West,270,0.0,0.0,82,0.00,CLR,,0.06,WeatherDisplay:10.37,2013-02-13 23:37:00,
2013-02-13 15:42:00,47.7,42.4,30.17,SSW,202,0.0,0.0,82,0.00,CLR,,0.06,WeatherDisplay:10.37,2013-02-13 23:42:00,
2013-02-13 15:47:00,47.7,42.4,30.17,South,180,0.0,0.0,82,0.00,CLR,,0.06,WeatherDisplay:10.37,2013-02-13 23:47:00,
2013-02-13 15:52:00,47.5,42.3,30.16,South,180,0.0,0.0,82,0.00,CLR,,0.06,WeatherDisplay:10.37,2013-02-13 23:52:00,
2013-02-13 15:57:00,47.5,42.3,30.16,South,180,0.0,0.0,82,0.00,CLR,,0.06,WeatherDisplay:10.37,2013-02-13 23:57:00,
2013-02-13 16:02:00,47.5,42.3,30.16,South,180,0.0,0.0,82,0.00,CLR,,0.06,WeatherDisplay:10.37,2013-02-14 00:02:00,
2013-02-13 16:07:00,47.7,42.4,30.17,South,180,0.0,0.0,82,0.00,CLR,,0.06,WeatherDisplay:10.37,2013-02-14 00:07:00,
2013-02-13 16:12:00,47.8,42.6,30.17,South,180,0.0,0.0,82,0.00,CLR,,0.06,WeatherDisplay:10.37,2013-02-14 00:12:00,
2013-02-13 16:17:00,47.7,42.4,30.16,South,180,0.0,0.0,82,0.00,CLR,,0.06,WeatherDisplay:10.37,2013-02-14 00:17:00,
2013-02-13 16:22:00,47.7,42.4,30.16,SSW,202,0.0,0.0,82,0.00,CLR,,0.06,WeatherDisplay:10.37,2013-02-14 00:22:00,
2013-02-13 16:27:00,47.5,42.3,30.16,WNW,292,0.0,0.0,82,0.00,CLR,,0.06,WeatherDisplay:10.37,2013-02-14 00:27:00,
2013-02-13 16:32:00,47.5,42.3,30.16,WNW,292,0.0,0.0,82,0.00,CLR,,0.06,WeatherDisplay:10.37,2013-02-14 00:32:00,
2013-02-13 16:37:00,47.3,42.1,30.16,WSW,248,0.0,0.0,82,0.00,CLR,,0.06,WeatherDisplay:10.37,2013-02-14 00:37:00,
2013-02-13 16:42:00,47.1,41.9,30.17,WSW,248,0.0,0.0,82,0.00,CLR,,0.06,WeatherDisplay:10.37,2013-02-14 00:42:00,
2013-02-13 16:47:00,47.1,41.9,30.17,WSW,248,0.0,0.0,82,0.00,CLR,,0.06,WeatherDisplay:10.37,2013-02-14 00:47:00,
2013-02-13 16:52:00,47.1,42.2,30.17,WSW,248,0.0,0.0,83,0.00,CLR,,0.06,WeatherDisplay:10.37,2013-02-14 00:52:00,
2013-02-13 16:57:00,46.9,42.0,30.17,WSW,248,0.0,0.0,83,0.00,CLR,,0.06,WeatherDisplay:10.37,2013-02-14 00:57:00,
2013-02-13 17:02:00,46.9,42.0,30.18,WSW,248,0.0,0.0,83,0.00,CLR,,0.06,WeatherDisplay:10.37,2013-02-14 01:02:00,
2013-02-13 17:07:00,46.6,41.7,30.18,WSW,248,0.0,0.0,83,0.00,CLR,,0.06,WeatherDisplay:10.37,2013-02-14 01:07:00,
2013-02-13 17:12:00,46.6,41.7,30.17,WSW,248,0.0,0.0,83,0.00,CLR,,0.06,WeatherDisplay:10.37,2013-02-14 01:12:00,
2013-02-13 17:17:00,46.4,41.5,30.17,WSW,248,0.0,0.0,83,0.00,CLR,,0.06,WeatherDisplay:10.37,2013-02-14 01:17:00,
2013-02-13 17:22:00,46.2,41.3,30.18,WSW,248,0.0,0.0,83,0.00,CLR,,0.06,WeatherDisplay:10.37,2013-02-14 01:22:00,
2013-02-13 17:27:00,46.2,41.7,30.18,WSW,248,0.0,0.0,84,0.00,CLR,,0.06,WeatherDisplay:10.37,2013-02-14 01:27:00,
2013-02-13 17:32:00,46.0,41.5,30.17,WSW,248,0.0,0.0,84,0.00,CLR,,0.06,WeatherDisplay:10.37,2013-02-14 01:32:00,
2013-02-13 17:37:00,46.0,41.5,30.18,WSW,248,0.0,0.0,84,0.00,CLR,,0.06,WeatherDisplay:10.37,2013-02-14 01:37:00,
2013-02-13 17:42:00,45.7,41.1,30.18,WSW,248,0.0,0.0,84,0.00,CLR,,0.06,WeatherDisplay:10.37,2013-02-14 01:42:00,
2013-02-13 17:47:00,45.7,41.4,30.18,WSW,248,0.0,0.0,85,0.00,CLR,,0.06,WeatherDisplay:10.37,2013-02-14 01:47:00,
2013-02-13 17:52:00,45.5,41.3,30.18,WSW,248,0.0,0.0,85,0.00,CLR,,0.06,WeatherDisplay:10.37,2013-02-14 01:52:00,
2013-02-13 17:58:00,45.3,41.1,30.18,WSW,248,0.0,0.0,85,0.00,CLR,,0.06,WeatherDisplay:10.37,2013-02-14 01:58:00,
2013-02-13 18:03:00,45.1,40.9,30.18,WSW,248,0.0,0.0,85,0.00,CLR,,0.06,WeatherDisplay:10.37,2013-02-14 02:03:00,
2013-02-13 18:08:00,45.1,40.9,30.18,WSW,248,0.0,0.0,85,0.00,CLR,,0.06,WeatherDisplay:10.37,2013-02-14 02:08:00,
2013-02-13 18:13:00,45.0,41.0,30.17,WSW,248,0.0,0.0,86,0.00,CLR,,0.06,WeatherDisplay:10.37,2013-02-14 02:13:00,
2013-02-13 18:18:00,45.0,41.0,30.18,WSW,248,0.0,0.0,86,0.00,CLR,,0.06,WeatherDisplay:10.37,2013-02-14 02:18:00,
2013-02-13 18:23:00,44.8,40.8,30.18,WSW,248,0.0,0.0,86,0.00,CLR,,0.06,WeatherDisplay:10.37,2013-02-14 02:23:00,
2013-02-13 18:28:00,44.4,40.5,30.18,WSW,248,0.0,0.0,86,0.00,CLR,,0.06,WeatherDisplay:10.37,2013-02-14 02:28:00,
2013-02-13 18:33:00,44.4,40.5,30.17,WSW,248,0.0,0.0,86,0.00,CLR,,0.06,WeatherDisplay:10.37,2013-02-14 02:33:00,
2013-02-13 18:38:00,44.2,40.6,30.17,WSW,248,0.0,0.0,87,0.00,CLR,,0.06,WeatherDisplay:10.37,2013-02-14 02:38:00,
2013-02-13 18:43:00,43.9,40.3,30.17,WSW,248,0.0,0.0,87,0.00,CLR,,0.06,WeatherDisplay:10.37,2013-02-14 02:43:00,
2013-02-13 18:48:00,43.9,40.3,30.18,WSW,248,0.0,0.0,87,0.00,CLR,,0.06,WeatherDisplay:10.37,2013-02-14 02:48:00,
2013-02-13 18:53:00,43.9,40.3,30.18,WSW,248,0.0,0.0,87,0.00,CLR,,0.06,WeatherDisplay:10.37,2013-02-14 02:53:00,
2013-02-13 18:58:00,43.7,40.1,30.19,WSW,248,0.0,0.0,87,0.00,CLR,,0.06,WeatherDisplay:10.37,2013-02-14 02:58:00,
2013-02-13 19:03:00,43.9,40.6,30.19,WSW,248,0.0,0.0,88,0.00,CLR,,0.06,WeatherDisplay:10.37,2013-02-14 03:03:00,
2013-02-13 19:08:00,43.9,40.6,30.19,WSW,248,0.0,0.0,88,0.00,CLR,,0.06,WeatherDisplay:10.37,2013-02-14 03:08:00,
2013-02-13 19:13:00,43.9,40.6,30.19,WSW,248,0.0,0.0,88,0.00,CLR,,0.06,WeatherDisplay:10.37,2013-02-14 03:13:00,
2013-02-13 19:18:00,43.9,40.6,30.19,WSW,248,0.0,0.0,88,0.00,CLR,,0.06,WeatherDisplay:10.37,2013-02-14 03:18:00,
2013-02-13 19:23:00,43.9,40.6,30.19,WSW,248,0.0,0.0,88,0.00,CLR,,0.06,WeatherDisplay:10.37,2013-02-14 03:23:00,
2013-02-13 19:28:00,43.9,40.6,30.19,WSW,248,0.0,0.0,88,0.00,CLR,,0.06,WeatherDisplay:10.37,2013-02-14 03:28:00,
2013-02-13 19:33:00,43.9,40.6,30.19,WSW,248,0.0,0.0,88,0.00,CLR,,0.06,WeatherDisplay:10.37,2013-02-14 03:33:00,
2013-02-13 19:38:00,43.9,40.6,30.20,WSW,248,0.0,0.0,88,0.00,CLR,,0.06,WeatherDisplay:10.37,2013-02-14 03:38:00,
2013-02-13 19:43:00,43.9,40.6,30.20,WSW,248,0.0,0.0,88,0.00,CLR,,0.06,WeatherDisplay:10.37,2013-02-14 03:43:00,
2013-02-13 19:48:00,43.9,40.8,30.20,WSW,248,0.0,0.0,89,0.00,CLR,,0.06,WeatherDisplay:10.37,2013-02-14 03:48:00,
2013-02-13 19:53:00,43.9,40.8,30.20,WSW,248,0.0,0.0,89,0.00,CLR,,0.06,WeatherDisplay:10.37,2013-02-14 03:53:00,
2013-02-13 19:59:00,43.9,40.8,30.20,SW,225,0.0,0.0,89,0.00,CLR,,0.06,WeatherDisplay:10.37,2013-02-14 03:59:00,
2013-02-13 20:04:00,43.9,40.8,30.20,SSW,202,0.0,0.0,89,0.00,CLR,,0.06,WeatherDisplay:10.37,2013-02-14 04:04:00,
2013-02-13 20:09:00,43.9,40.8,30.20,SSW,202,0.0,0.0,89,0.00,CLR,,0.06,WeatherDisplay:10.37,2013-02-14 04:09:00,
2013-02-13 20:14:00,43.9,40.8,30.20,SSW,202,0.0,0.0,89,0.00,CLR,,0.06,WeatherDisplay:10.37,2013-02-14 04:14:00,
2013-02-13 20:19:00,43.9,40.8,30.20,SSW,202,0.0,0.0,89,0.00,CLR,,0.06,WeatherDisplay:10.37,2013-02-14 04:19:00,
2013-02-13 20:24:00,43.9,40.8,30.20,SSW,202,0.0,0.0,89,0.00,CLR,,0.06,WeatherDisplay:10.37,2013-02-14 04:24:00,
2013-02-13 20:29:00,43.9,40.8,30.20,SSW,202,0.0,0.0,89,0.00,CLR,,0.06,WeatherDisplay:10.37,2013-02-14 04:29:00,
2013-02-13 20:34:00,44.1,41.0,30.20,SSW,202,0.0,0.0,89,0.00,CLR,,0.06,WeatherDisplay:10.37,2013-02-14 04:34:00,
2013-02-13 20:39:00,43.9,40.8,30.20,SSW,202,0.0,0.0,89,0.00,CLR,,0.06,WeatherDisplay:10.37,2013-02-14 04:39:00,
2013-02-13 20:44:00,43.9,40.8,30.20,SSW,202,0.0,0.0,89,0.00,CLR,,0.06,WeatherDisplay:10.37,2013-02-14 04:44:00,
2013-02-13 20:49:00,43.9,41.1,30.20,SSW,202,0.0,0.0,90,0.00,CLR,,0.06,WeatherDisplay:10.37,2013-02-14 04:49:00,
2013-02-13 20:54:00,43.9,41.1,30.20,SSW,202,0.0,0.0,90,0.00,CLR,,0.06,WeatherDisplay:10.37,2013-02-14 04:54:00,
2013-02-13 20:59:00,43.9,41.1,30.21,SSW,202,0.0,0.0,90,0.00,CLR,,0.06,WeatherDisplay:10.37,2013-02-14 04:59:00,
2013-02-13 21:00:00,43.9,41.1,30.21,SSW,202,0.0,0.0,90,0.00,CLR,,0.06,WeatherDisplay:10.37,2013-02-14 05:00:00,
2013-02-13 21:01:00,43.9,41.1,30.20,SSW,202,0.0,0.0,90,0.00,CLR,,0.06,WeatherDisplay:10.37,2013-02-14 05:01:00,
2013-02-13 21:03:00,43.9,41.1,30.21,SSW,202,0.0,0.0,90,0.00,CLR,,0.06,WeatherDisplay:10.37,2013-02-14 05:03:00,
2013-02-13 21:05:00,43.9,41.1,30.21,SSW,202,0.0,0.0,90,0.00,CLR,,0.06,WeatherDisplay:10.37,2013-02-14 05:05:00,
2013-02-13 21:10:00,43.9,41.1,30.21,SSW,202,0.0,0.0,90,0.00,CLR,,0.06,WeatherDisplay:10.37,2013-02-14 05:10:00,
2013-02-13 21:15:00,43.9,41.1,30.21,SSW,202,0.0,0.0,90,0.00,CLR,,0.06,WeatherDisplay:10.37,2013-02-14 05:15:00,
2013-02-13 21:21:00,43.9,41.1,30.21,SSW,202,0.0,0.0,90,0.00,CLR,,0.06,WeatherDisplay:10.37,2013-02-14 05:21:00,
2013-02-13 21:26:00,44.1,41.3,30.20,SSW,202,0.0,0.0,90,0.00,CLR,,0.06,WeatherDisplay:10.37,2013-02-14 05:26:00,
2013-02-13 21:31:00,44.1,41.3,30.20,SSW,202,0.0,0.0,90,0.00,CLR,,0.06,WeatherDisplay:10.37,2013-02-14 05:31:00,
2013-02-13 21:36:00,44.1,41.3,30.20,SSW,202,0.0,0.0,90,0.00,CLR,,0.06,WeatherDisplay:10.37,2013-02-14 05:36:00,
2013-02-13 21:41:00,44.1,41.3,30.21,SSW,202,0.0,0.0,90,0.00,CLR,,0.06,WeatherDisplay:10.37,2013-02-14 05:41:00,
2013-02-13 21:46:00,44.1,41.3,30.21,SSW,202,0.0,0.0,90,0.00,CLR,,0.06,WeatherDisplay:10.37,2013-02-14 05:46:00,
2013-02-13 21:51:00,44.1,41.3,30.21,ESE,112,0.0,0.0,90,0.00,CLR,,0.06,WeatherDisplay:10.37,2013-02-14 05:51:00,
2013-02-13 21:56:00,44.1,41.3,30.21,ESE,112,0.0,0.0,90,0.00,CLR,,0.06,WeatherDisplay:10.37,2013-02-14 05:56:00,
2013-02-13 22:01:00,44.2,41.5,30.21,ESE,112,0.0,0.0,90,0.00,CLR,,0.06,WeatherDisplay:10.37,2013-02-14 06:01:00,
2013-02-13 22:06:00,44.2,41.5,30.21,ESE,112,0.0,0.0,90,0.00,CLR,,0.06,WeatherDisplay:10.37,2013-02-14 06:06:00,
2013-02-13 22:11:00,44.2,41.5,30.22,ESE,112,0.0,0.0,90,0.00,CLR,,0.06,WeatherDisplay:10.37,2013-02-14 06:11:00,
2013-02-13 22:17:00,44.2,41.5,30.22,ESE,112,0.0,0.0,90,0.00,CLR,,0.06,WeatherDisplay:10.37,2013-02-14 06:17:00,
2013-02-13 22:22:00,44.2,41.5,30.22,ESE,112,0.0,0.0,90,0.00,CLR,,0.06,WeatherDisplay:10.37,2013-02-14 06:22:00,
2013-02-13 22:27:00,44.1,41.6,30.22,ESE,112,0.0,0.0,91,0.00,CLR,,0.06,WeatherDisplay:10.37,2013-02-14 06:27:00,
2013-02-13 22:32:00,44.1,41.6,30.22,ESE,112,0.0,0.0,91,0.00,CLR,,0.06,WeatherDisplay:10.37,2013-02-14 06:32:00,
2013-02-13 22:37:00,44.1,41.6,30.22,ESE,112,0.0,0.0,91,0.00,CLR,,0.06,WeatherDisplay:10.37,2013-02-14 06:37:00,
2013-02-13 22:42:00,44.1,41.6,30.22,ESE,112,0.0,0.0,91,0.00,CLR,,0.06,WeatherDisplay:10.37,2013-02-14 06:42:00,
2013-02-13 22:47:00,43.9,41.4,30.22,ESE,112,0.0,0.0,91,0.00,CLR,,0.06,WeatherDisplay:10.37,2013-02-14 06:47:00,
2013-02-13 22:52:00,43.9,41.4,30.22,ESE,112,0.0,0.0,91,0.00,CLR,,0.06,WeatherDisplay:10.37,2013-02-14 06:52:00,
2013-02-13 22:57:00,43.9,41.4,30.22,ESE,112,0.0,0.0,91,0.00,CLR,,0.06,WeatherDisplay:10.37,2013-02-14 06:57:00,
2013-02-13 23:02:00,43.9,41.4,30.22,ESE,112,0.0,0.0,91,0.00,CLR,,0.06,WeatherDisplay:10.37,2013-02-14 07:02:00,
2013-02-13 23:07:00,43.9,41.4,30.22,ESE,112,0.0,0.0,91,0.00,CLR,,0.06,WeatherDisplay:10.37,2013-02-14 07:07:00,
2013-02-13 23:12:00,43.9,41.4,30.22,ESE,112,0.0,0.0,91,0.00,CLR,,0.06,WeatherDisplay:10.37,2013-02-14 07:12:00,
2013-02-13 23:17:00,43.9,41.4,30.22,ESE,112,0.0,0.0,91,0.00,CLR,,0.06,WeatherDisplay:10.37,2013-02-14 07:17:00,
2013-02-13 23:22:00,43.7,41.2,30.22,ESE,112,0.0,0.0,91,0.00,CLR,,0.06,WeatherDisplay:10.37,2013-02-14 07:22:00,
2013-02-13 23:27:00,43.7,41.2,30.22,East,90,0.0,0.0,91,0.00,CLR,,0.06,WeatherDisplay:10.37,2013-02-14 07:27:00,
2013-02-13 23:32:00,43.7,41.5,30.22,East,90,0.0,0.0,92,0.00,CLR,,0.06,WeatherDisplay:10.37,2013-02-14 07:32:00,
2013-02-13 23:37:00,43.7,41.5,30.22,East,90,0.0,0.0,92,0.00,CLR,,0.06,WeatherDisplay:10.37,2013-02-14 07:37:00,
2013-02-13 23:42:00,43.7,41.5,30.23,East,90,0.0,0.0,92,0.00,CLR,,0.06,WeatherDisplay:10.37,2013-02-14 07:42:00,
2013-02-13 23:47:00,43.7,41.5,30.23,East,90,0.0,0.0,92,0.00,CLR,,0.06,WeatherDisplay:10.37,2013-02-14 07:47:00,
2013-02-13 23:52:00,43.7,41.5,30.24,East,90,0.0,0.0,92,0.00,CLR,,0.06,WeatherDisplay:10.37,2013-02-14 07:52:00,
2013-02-13 23:57:00,43.7,41.5,30.24,East,90,0.0,0.0,92,0.00,CLR,,0.06,WeatherDisplay:10.37,2013-02-14 07:57:00,